{"data":{"norad_id":60040,"epoch":"2026-05-24T16:23:03.850080Z","epoch_age_seconds":98367,"freshness":"FRESH","line1":"1 60040U 24112C   26144.68268345  .00000299  00000+0  73205-5 0  9990","line2":"2 60040  53.1614 251.8647 0000581  91.2004 268.9081 15.69712017112912","mean_motion":15.69712017,"eccentricity":5.81e-5,"inclination_deg":53.1614,"raan_deg":251.8647,"arg_perigee_deg":91.2004,"mean_anomaly_deg":268.9081,"bstar":7.3205e-6,"rev_number":11291,"period_min":91.736572339689,"perigee_km":359.32950899548,"apogee_km":360.11244809258,"semimajor_km":6737.857978544,"source":"CELESTRAK","updated_at":"2026-05-25T13:38:19.152312Z"}}